Regional Weather Roundup
Issued by NWS Boston, MA

Home | Current Version | Previous Version | Text Only | Print | Product List | Glossary On
Versions: 1 2 3 4 5 6 7 8 9 10 11 12 13 14 15 16 17 18 19 20 21 22 23 24 25 26 27 28 29 30 31 32 33 34 35 36 37 38 39 40
000
ASUS41 KBOX 251710
RWRBOX

REGIONAL WEATHER ROUNDUP
NATIONAL WEATHER SERVICE TAUNTON MA
1200 PM EST THU DEC 25 2014

NOTE:  "FAIR" INDICATES FEW OR NO CLOUDS BELOW 12,000 FEET WITH NO
SIGNIFICANT WEATHER AND/OR OBSTRUCTIONS TO VISIBILITY.  THE FOLLOWING
OBSERVATION LOCATIONS DO NOT REPORT PRESENT WEATHER...PROVINCETOWN...
SMITHFIELD...BLOCK ISLAND...KEENE...AND OXFORD.

MAZALL-251800-
EASTERN MASSACHUSETTS

CITY           SKY/WX    TMP DP  RH WIND       PRES   REMARKS
BOSTON         CLOUDY    50  38  63 W16G29    29.57S
BEVERLY        CLOUDY    51  38  60 W13G25    29.55S
LAWRENCE       CLOUDY    51  37  58 W18G26    29.56F
BEDFORD        CLOUDY    50  37  61 W20G29    29.56F
BLUE HILL        N/A     50  41  71 W15G29    29.56S
NORWOOD        CLOUDY    52  39  61 W16G26    29.58S
MARSHFIELD     CLOUDY    54  46  76 W7        29.59S
PLYMOUTH       CLOUDY    52  46  80 W14       29.58R
TAUNTON        CLOUDY    54  44  69 W9        29.59S
NEW BEDFORD    CLOUDY    52  45  77 W12       29.59S
$$

MAZALL-251800-
CAPE COD AND THE ISLANDS

CITY           SKY/WX    TMP DP  RH WIND       PRES   REMARKS
FALMOUTH       CLOUDY    48  46  93 W12G18    29.58F
HYANNIS        CLOUDY    50  47  89 SW12      29.57F
CHATHAM        CLOUDY    47  47 100 SW12G22   29.61S
PROVINCETOWN   CLOUDY    52  46  82 W14       29.57S
NANTUCKET      CLOUDY    50  45  83 SW17      29.61F
MARTHAS VNYRD  CLOUDY    49  43  80 W12G23    29.61F
$$

MAZALL-251800-
CENTRAL AND WESTERN MASSACHUSETTS

CITY           SKY/WX    TMP DP  RH WIND       PRES   REMARKS
WORCESTER      PTSUNNY   48  32  53 W26G33    29.57F
FITCHBURG      PTSUNNY   53  34  48 W16G26    29.59S
ORANGE         CLOUDY    50  33  52 VRB7G21   29.60S
SPRINGFIELD    MOSUNNY   54  31  42 W17G29    29.61F
WESTFIELD      MOSUNNY   52  30  43 W12G25    29.62S
NORTH ADAMS    CLOUDY    46  31  55 W9G21     29.64R
PITTSFIELD     PTSUNNY   45  32  60 W20G30    29.63R
$$

RIZALL-251800-
RHODE ISLAND

CITY           SKY/WX    TMP DP  RH WIND       PRES   REMARKS
PROVIDENCE     CLOUDY    53  38  56 W15G24    29.61S
NEWPORT        CLOUDY    51  43  74 W9G16     29.62R
BLOCK ISLAND   CLOUDY    48  41  76 W18G26    29.64F
SMITHFIELD     CLOUDY    52  36  54 W10G16    29.59F
WESTERLY       CLOUDY    53  42  66 W10       29.64F
$$

CTZALL-251800-
CONNECTICUT

CITY           SKY/WX    TMP DP  RH WIND       PRES   REMARKS
BRADLEY INTL   PTSUNNY   51  37  58 W14       29.62F
HARTFORD       CLOUDY    52  37  56 SW12G23   29.65S
BRIDGEPORT     MOSUNNY   53  35  50 W14G26    29.68F
DANBURY        SUNNY     50  29  44 NW15G28   29.70S
GROTON         PTSUNNY   52  40  63 W16G24    29.64F
NEW HAVEN      MOSUNNY   54  33  45 NW15G30   29.67F
CHESTER        FAIR      50  36  57 W12G23    29.65F
MERIDEN        MOSUNNY   52  33  48 NW12G29   29.67S
WILLIMANTIC    PTSUNNY   52  39  61 NW12G20   29.63F
OXFORD         MOSUNNY   48  32  53 NW147     29.68S
$$

MEZ002-015-021-024-NHZ003-005-008-011-012-014-VTZ005-008-251800-
NORTHERN NEW ENGLAND

CITY           SKY/WX    TMP DP  RH WIND       PRES   REMARKS
PORTLAND ME    CLOUDY    50  39  66 W16G24    29.48R
BANGOR ME      CLOUDY    50  49  96 SW6       29.37S
CONCORD NH     PTSUNNY   50  35  56 SW8G21    29.54S
MANCHESTER NH  PTSUNNY   50  34  54 W18G32    29.54S
NASHUA NH      PTSUNNY   51  35  54 W9G18     29.57S
PORTSMOUTH NH  PTSUNNY   49  38  65 W13G26    29.52R
JAFFREY NH     CLOUDY    46  33  60 W12G18    29.57S
KEENE NH       CLOUDY    48  34  57 NW7       29.59R
BURLINGTON VT  PTSUNNY   47  30  51 W14       29.52R
MT. WASHINGTON FOG       21  21 100 W74G85      N/A  VSB 1/16WCI  -4
$$

NYZ052-076-251800-
EASTERN NEW YORK

CITY           SKY/WX    TMP DP  RH WIND       PRES   REMARKS
ALBANY         PTSUNNY   48  31  51 W16G26    29.68R
NEW YORK CITY  MOSUNNY   52  28  39 W23G32    29.75S
$$

ANZALL-251800-
MARINE OBSERVATIONS

STATION/POSITION TIME  TEMP    WIND        PRES    VSBY  WAVE
                       AIR SEA DIR/SP/G                  HT/PER
                 (UTC) (F)     (DEG/KT/KT) (MB)    (MI)  (FT/S)
BOSTON BUOY      1650   48 44  300/ 14/ 17 1000.8R         3/ 7
BUZZARDS BAY     1600          240/ 28/ 30 1003.3R
NANTUCKET SOUND  1650   49 44  230/ 19/ 23 1001.8F         2/ 4
MASS BAY-STELLWA 1604   50 44  270/ 21/ 27   N/A    1 7/8  5/11
ISLE OF SHOALS   1700   49     270/ 22/ 27  998.9F
S OF BLOCK IS    1608      48                N/A           8/ 9
$$

......................KEY.........................
  SKY/WX - SKY CONDITION/PRESENT WEATHER
  TMP    - TEMPERATURE IN FAHRENHEIT
  DWPT   - DEWPOINT IN FAHRENHEIT
  RH     - RELATIVE HUMIDITY IN PERCENT
  WIND   - DIRECTION AND SPEED IN MPH
  PRES   - MEAN SEA LEVEL PRESSURE IN INCHES OF HG
  WCI    - WIND CHILL INDEX
  VSB    - VISIBILITY IN MILES
  HX     - HEAT INDEX
  TC     - TEMPERATURE IN CELSIUS
  VRB    - VARIABLE WIND DIRECTION
  N/A    - NOT AVAILABLE


USA.gov is the U.S. government's official web portal to all federal, state and local government web resources and services.